www.pogodaiklimat.ru

Погода и климат >> Архив погоды >> Уругвай >> Колония


ПОГОДА в Колонии

  • Прогноз погоды в Колонии
  • Монитор погоды в Колонии

АРХИВ ПОГОДЫ в Колонии

Время (UTC), дата Ветер
(напр.,м/с)
 
Видим.   Явления Облачность Т
(С)
Тd
(С)
f
(%)
Тe
(С)
Тes
(С)
Комфортность P
(гПа)
Po
(гПа)
Тmin
(С)
Tmax
(С)
R
(мм)
R24
(мм)
S
(см)
12 9.06 С 6 20 км ясно +10.9 +3.9 62 +8 +8 1019.0 1015.5
15 9.06 СВ 9 20 км ясно +17.8 +6.7 48 +17 +17 1018.0 1014.5
18 9.06 СВ 5 20 км 1/0
[Ac und]
+21.4 +7.0 39 +22 +24 комфорт 1015.1 1011.7
21 9.06 В 2 18 км 1/0
[Ac cast Ci fib]
+15.7 +11.2 75 +16 +16 1013.9 1010.4
12 10.06 С 6 5000 м дымка 10/5 200 м
[St As op]
+15.1 +14.8 98 +13 +13 1015.0 1011.5
15 10.06 СЗ 7 6000 м дымка 10/5 300 м
[Frnb Ac As]
+17.3 +15.7 90 +16 +16 1015.5 1012.0
18 10.06 СЗ 4 6000 м дымка 10/4 300 м
[Frnb As op]
+17.3 +15.6 90 +17 +17 1015.1 1011.6 0.0
21 10.06 ЮЗ 3 5000 м дымка 10/8 300 м
[St As op]
+16.1 +15.3 95 +16 +16 1015.5 1012.0
12 11.06 ЮВ 13 10 км 10/4 300 м
[Frnb Ac As Cs]
+13.9 +11.8 87 +11 +11 1018.1 1014.5
15 11.06 В 10 10 км 10/4 300 м
[Sc diur, vesp Ac As]
+15.2 +12.7 85 +13 +13 1017.2 1013.7
18 11.06 В 8 7000 м дымка 10/10 300 м
[St]
+16.4 +14.3 87 +15 +15 1014.0 1010.5
21 11.06 В 6 3000 м гроза, ливневой дождь 10/10 200 м
[Cb calv]
+15.6 +14.8 95 +14 +14 1012.9 1009.4
12 12.06 З 5 9000 м дымка 10/3 600 м
[Sc Ac As Ci sp]
+17.8 +16.9 94 +17 +17 1009.4 1006.0 5
15 12.06 СЗ 6 9000 м дымка 9/5 600 м
[Sc Ac und]
+20.6 +18.2 86 +24 +25 комфорт 1009.4 1006.0
18 12.06 СЗ 6 9000 м дымка 9/5 300 м
[Sc Ac und]
+20.3 +18.0 87 +23 +24 комфорт 1009.0 1005.6 0.0
21 12.06 Ю 2 3000 м дымка 10/6 300 м
[Frnb Ac As]
+19.0 +17.8 93 +21 +21 комфорт 1009.8 1006.4
12 13.06 В 14 600 м слаб. дождь {туман} 10/10 50 м
[Frnb]
+15.2 +15.2 100 +12 +12 1011.9 1008.4 0.5
15 13.06 ЮВ 11 2000 м гроза без осадков 10/8 100 м
[Cb cap Ac As]
+16.1 +15.9 99 +14 +14 1011.9 1008.4
18 13.06 СВ 11 18 км {гроза, дождь} 8/5 100 м
[Sc Ac und]
+20.2 +17.8 86 +23 +23 комфорт 1008.7 1005.2 0.6
21 13.06 СВ 9 18 км гроза без осадков 10/6 100 м
[Cb calv Ac As]
+18.8 +17.3 91 +19 +19 1007.6 1004.2
12 14.06 ЮЗ 12 2000 м слаб. морось 10/10 100 м
[St]
+15.3 +15.0 98 +13 +13 1013.1 1009.6 22
15 14.06 ЮЗ 3 8000 м дымка 10/10 300 м
[Sc]
+15.9 +14.3 90 +15 +15 1015.0 1011.6
18 14.06 ЮЗ 7 10 км {морось} 10/10 300 м
[Sc]
+15.9 +13.9 88 +14 +14 1014.8 1011.3 0.1
21 14.06 ЮЗ 9 10 км 10/10 200 м
[Sc]
+14.6 +13.4 93 +12 +12 1015.4 1011.9
12 15.06 ЮВ 16 4000 м дождь 10/10 100 м
[Frnb]
+13.3 +12.5 95 +9 +9 1016.9 1013.3 6
15 15.06 ЮВ 19 5000 м слаб. дождь 10/10 100 м
[Frnb]
+13.5 +12.7 95 +9 +9 1018.2 1014.7
18 15.06 ЮВ 22 2000 м сильн. морось {дождь} 10/10 100 м
[Frnb]
+13.3 +12.6 96 +9 +9 1016.9 1013.4 12
21 15.06 ЮВ 24 5000 м слаб. морось 10/10 100 м
[Frnb]
+13.6 +12.9 96 +9 +9 1017.4 1013.9

 

Местоположение метеостанции Колония (Уругвай): широта -34.45 долгота -57.83 высота над уровнем моря 22 м.

В архиве по умолчанию представлена погода в Колонии за последнюю неделю. Архивные данные за месяц целиком и за предыдущие месяцы, начиная с января 2011 года, Вы можете получить, выбрав интересующий диапазон дат из раскрывающегося списка и нажав кнопку "Ввод!".


*Определитесь, кто Вы:
робот инопланетянин человек

Внимание! Время в таблицах - всемирное. Для получения местного времени необходимо прибавить поправку, которая равна 0 ч.

Смотрите также архив погоды в соседних городах и на ближайших метеорологических станциях:

Погода в Буэнос-Айресе аэропорт (Аргентина) (55 км)
Погода в Ла-Плате (Аргентина) (57 км)
Погода в Буэнос-Айресе (Аргентина) (61 км)
Погода в Эсейсе (Аргентина) (76 км)
Погода в Мерседесе (Уругвай) (135 км)
Погода в Мелилье (Уругвай) (149 км)
Погода во Флориде (Уругвай) (153 км)
Погода в Прадо (Уругвай) (156 км)
Погода в Карраско (Уругвай) (173 км)
Погода в Дурасно (Уругвай) (173 км)

Пояснения к столбцам:

Ветер - указаны скорость ветра в м/с - средняя за 10 мин, порывы в срок и между сроками (в фигурных скобках) и направление, откуда дует ветер: С - северный, СВ - северо-восточный, В - восточный, ЮВ - юго-восточный, Ю - южный, ЮЗ - юго-западный, З - западный, СЗ - северо-западный.
Видимость - горизонтальная дальность видимости в метрах или километрах. При видимости от 1 до 10 км при отсутствии осадков обычно наблюдается дымка, при ухудшении видимости до 1 км и менее - туман. В сухую погоду видимость может ухудшаться дымом, пылью или мглою.
Явления - указаны атмосферные явления, наблюдавшиеся в срок или в последний час перед сроком; фигурными скобками обозначены явления, наблюдавшиеся между сроками (за 1-3 часа до срока); квадратными скобками обозначены град или гололедные отложения с указанием их диаметра в мм.
Облачность - указаны через наклонную черту общая и нижняя облачность в баллах и высота нижней границы облаков в метрах; квадратными скобками обозначены формы облаков: Ci - перистые, Cs - перисто-слоистые, Cc - перисто-кучевые, Ac - высококучевые, As - высокослоистые, Sc - слоисто-кучевые, Ns - слоисто-дождевые, Cu - кучевые, Cb - кучево-дождевые. Подробнее классификацию облаков см. в Атласе облаков (PDF).
T - Температура воздуха - температура, измеренная на высоте 2 м над землей.
Td - Температура точки росы - температура, при понижении до которой содержащийся в воздухе водяной пар достигнет насыщения.
f - Относительная влажность воздуха - влажноcть воздуха, измеренная на высоте 2 м над землей.
Te - Эффективная температура - температура, которую ощущает одетый по сезону человек в тени. Характеристика душности погоды. При расчете учитывается влияние влажности воздуха и скорости ветра на теплоощущения человека.
Tes - Эффективная температура на солнце - температура, которую ощущает человек, с поправкой на солнечный нагрев. Характеристика знойности погоды. Зависит от высоты солнца над горизонтом, облачности и скорости ветра. Ночью, в пасмурную погоду, а также при ветре 12 м/с и более поправка равна нулю.
P - Атмосферное давление - приведенное к уровню моря атмосферное давление.
Po - Атмосферное давление - измеренное на уровне метеостанции атмосферное давление.
Tmin - Минимальная температура - минимум температуры воздуха на высоте 2 м над землей.
Tmax - Максимальная температура - максимум температуры воздуха на высоте 2 м над землей.
R - Количество осадков - Количество выпавших осадков за период времени, мм. При наведении курсора мыши на число - период времени, за который выпало указанное количество осадков.
R24 - Количество осадков - Количество выпавших осадков за 24 часа, мм.
S - Снежный покров - Высота снежного покрова, см. При наведении курсора мыши на число - состояние снежного покрова и степень покрытия местности в баллах.